Regional Weather Roundup
Issued by NWS Portland, ME

Home | Current Version | Previous Version | Text Only | Print | Product List | Glossary On
Versions: 1 2 3 4 5 6 7 8 9 10 11 12 13 14 15 16 17 18 19 20 21 22 23 24 25 26 27 28 29 30 31 32 33 34 35 36 37 38 39 40 41 42 43 44 45 46 47 48 49 50
000
ASUS41 KGYX 280110
RWRGYX
WEATHER ROUNDUP FOR MAINE AND NEW HAMPSHIRE
NATIONAL WEATHER SERVICE GRAY ME
900 PM EDT FRI MAR 27 2015

MEZ002-005-006-010-012-015-018-020-021-024-026-027-029-280200-
MAINE

CITY           SKY/WX    TMP DP  RH WIND       PRES   REMARKS
PORTLAND       CLOUDY    39  34  82 CALM      29.75R
SANFORD        MOCLDY    34  28  80 CALM      29.74R
BAR HARBOR     CLOUDY    37  34  87 CALM      29.73S
WISCASSET      CLOUDY    38  34  85 CALM      29.77R
ROCKLAND       CLOUDY    37  36  93 W3        29.74R
FRYEBURG       CLOUDY    40  28  62 CALM      29.76R
LEWISTONAUBURN CLOUDY    39  27  60 NW3       29.75R
AUGUSTA        CLOUDY    38  27  64 N6        29.75R
WATERVILLE     CLOUDY    39  27  60 N7        29.72S
BANGOR         CLOUDY    38  25  59 NW6       29.74R
GREENVILLE       N/A     31  21  66 NW9       29.70R
MILLINOCKET    CLOUDY    38  24  57 NW3       29.74R
HOULTON        CLOUDY    30  26  85 CALM      29.72R
PRESQUE ISLE   PTCLDY    30  12  47 N10       29.76R
FRENCHVILLE    CLEAR     26  11  52 N13       29.76R WCI  15
CARIBOU        PTCLDY    29  14  53 N10       29.74R WCI  20
$$

NHZ002-005-008-009-011-012-014-280200-
NEW HAMPSHIRE

CITY           SKY/WX    TMP DP  RH WIND       PRES   REMARKS
PORTSMOUTH     MOCLDY    37  35  92 W2        29.73R
ROCHESTER      CLOUDY    37  35  92 CALM      29.73R
NASHUA         CLOUDY    37  35  92 CALM      29.74R
MANCHESTER     MOCLDY    39  38  96 CALM      29.73R
CONCORD        CLOUDY    40  28  62 NW6       29.75R
LACONIA        CLOUDY    37  27  65 CALM      29.73R
PLYMOUTH       CLOUDY    38  33  84 W6        29.76R
BERLIN         CLOUDY    34  26  72 N5        29.75R
WHITEFIELD     CLOUDY    34  28  79 NW3       29.77R
JAFFREY        MOCLDY    33  31  92 N3        29.72R
KEENE          MOCLDY    37  28  70 CALM      29.75S
LEBANON        CLOUDY    35  31  85 CALM      29.77R
MT WASHINGTON  SNOW      14  14 100 NW13        N/A  VSB 1/16WCI   0
$$

VTZ005-007-008-280200-
VERMONT

CITY           SKY/WX    TMP DP  RH WIND       PRES   REMARKS
ST JOHNSBURY     N/A     34  28  79 MISG      29.78R
MONTPELIER     CLOUDY    30  27  88 N5        29.81R
BURLINGTON     CLOUDY    32  25  75 N6        29.84R
$$

MAZ007-012-024-CTZ003-RIZ002-NYZ038-NYZ072-280200-
SOUTHERN NEW ENGLAND AND NY

CITY           SKY/WX    TMP DP  RH WIND       PRES   REMARKS
BOSTON         MOCLDY    41  35  79 CALM      29.75R
WORCESTER      CLOUDY    37  32  82 NW7       29.72R
NANTUCKET      CLOUDY    38  36  92 N12       29.72R
PROVIDENCE     CLOUDY    40  37  89 CALM      29.75S
HARTFORD       MOCLDY    41  28  60 NW3       29.75S
ALBANY         FLURRIES  37  23  56 NW10      29.81R
NEW YORK CITY  CLOUDY    44  28  53 N12       29.77R
$$

ANZ081-ANZ082-ANZ150-NHZ014-MEZ023>029-280200-
COASTAL MARINE OBSERVATIONS

STATION/POSITION TIME  TEMP    WIND        PRES    WAVE
                       AIR SEA DIR/SP/G            HT/PER
                 (UTC) (F)     (DEG/KT/KT) (MB)    (FT/S)
MOUNT DESERT ROC 0100   38                 1006.0R
MATINICUS ROCK   0100   38     270/ 11/ 12 1007.3R
WELLS            0000   40      CALM  /  2 1005.9R
ISLE OF SHOALS   0100   40     280/  5/  5 1006.3R
JEFFREYS LEDGE   0021      40                N/A     5/10
CASHES LEDGE BUO 0050   39 39              1006.7R   7/10
$$

.............KEY..............
   WCI - WIND CHILL
   TC  - TEMPERATURE IN CELSIUS
   VSB - VISIBILITY IN MILES
   HX  - HEAT INDEX
   FAIR- INDICATES FEW OR NO CLOUDS BELOW 12,000 FT, WITH NO
         SIGNIFICANT WEATHER AND/OR OBSTRUCTIONS TO VISIBILITY.




USA.gov is the U.S. government's official web portal to all federal, state and local government web resources and services.